TimeCDT,TemperatureF,Dew PointF,Humidity,Sea Level PressureIn,VisibilityMPH,Wind Direction,Wind SpeedMPH,Gust SpeedMPH,PrecipitationIn,Events,Conditions,WindDirDegrees,DateUTC
12:56 AM,62.1,59.0,90,29.81,10.0,South,5.8,-,N/A,,Clear,170,2012-10-18 05:56:00
1:56 AM,62.1,59.0,90,29.78,10.0,South,5.8,-,N/A,,Scattered Clouds,170,2012-10-18 06:56:00
2:56 AM,63.0,60.1,90,29.77,10.0,SSE,4.6,-,N/A,,Overcast,160,2012-10-18 07:56:00
3:56 AM,63.0,60.1,90,29.75,10.0,SSE,3.5,-,N/A,,Clear,150,2012-10-18 08:56:00
4:21 AM,62.6,60.8,94,29.78,10.0,Calm,Calm,-,N/A,Thunderstorm,Thunderstorm,0,2012-10-18 09:21:00
4:56 AM,64.0,60.1,87,29.78,10.0,Calm,Calm,-,0.00,Rain,Light Rain,0,2012-10-18 09:56:00
5:05 AM,64.4,60.8,88,29.80,8.0,Calm,Calm,-,0.01,Rain-Thunderstorm,Thunderstorms and Rain,0,2012-10-18 10:05:00
5:20 AM,62.6,60.8,94,29.81,5.0,Calm,Calm,-,0.05,Rain,Rain,0,2012-10-18 10:20:00
5:56 AM,64.0,62.1,93,29.74,8.0,SE,11.5,16.1,0.14,Rain,Rain,140,2012-10-18 10:56:00
6:31 AM,64.4,62.6,94,29.75,10.0,South,13.8,21.9,0.04,Rain,Light Rain,170,2012-10-18 11:31:00
6:47 AM,64.4,62.6,94,29.77,10.0,South,8.1,-,0.04,Rain,Light Rain,180,2012-10-18 11:47:00
6:56 AM,64.9,63.0,93,29.76,10.0,South,5.8,-,0.04,Rain,Light Rain,190,2012-10-18 11:56:00
7:05 AM,64.4,62.6,94,29.78,10.0,SSW,4.6,-,0.00,,Overcast,210,2012-10-18 12:05:00
7:56 AM,64.9,63.0,93,29.77,10.0,West,4.6,-,0.00,,Overcast,280,2012-10-18 12:56:00
8:56 AM,64.9,64.0,97,29.82,7.0,West,6.9,-,N/A,,Overcast,270,2012-10-18 13:56:00
9:56 AM,66.9,64.9,93,29.83,10.0,West,8.1,-,N/A,,Overcast,260,2012-10-18 14:56:00
10:56 AM,71.1,64.9,81,29.83,10.0,West,8.1,-,N/A,,Mostly Cloudy,270,2012-10-18 15:56:00
11:44 AM,73.4,64.4,73,29.82,10.0,NW,6.9,-,N/A,,Mostly Cloudy,310,2012-10-18 16:44:00
11:56 AM,73.9,63.0,68,29.81,10.0,Variable,6.9,-,N/A,,Mostly Cloudy,0,2012-10-18 16:56:00
12:07 PM,75.2,62.6,65,29.82,10.0,Variable,3.5,-,N/A,,Partly Cloudy,0,2012-10-18 17:07:00
1:56 PM,77.0,61.0,58,29.80,10.0,WNW,5.8,-,N/A,,Scattered Clouds,300,2012-10-18 18:56:00
2:56 PM,81.0,59.0,47,29.79,10.0,West,8.1,-,N/A,,Scattered Clouds,270,2012-10-18 19:56:00
3:56 PM,78.1,57.0,48,29.80,10.0,Variable,5.8,-,N/A,,Clear,0,2012-10-18 20:56:00
4:56 PM,78.1,55.9,46,29.79,10.0,West,6.9,-,N/A,,Clear,280,2012-10-18 21:56:00
5:56 PM,73.9,52.0,46,29.81,10.0,WNW,4.6,-,N/A,,Clear,300,2012-10-18 22:56:00
6:56 PM,66.9,55.0,66,29.82,10.0,Calm,Calm,-,N/A,,Clear,0,2012-10-18 23:56:00
7:56 PM,62.1,55.9,80,29.85,10.0,Calm,Calm,-,N/A,,Clear,0,2012-10-19 00:56:00
8:56 PM,59.0,55.0,87,29.86,10.0,Calm,Calm,-,N/A,,Partly Cloudy,0,2012-10-19 01:56:00
9:56 PM,57.9,48.9,72,29.87,10.0,Calm,Calm,-,N/A,,Clear,0,2012-10-19 02:56:00
10:56 PM,55.9,48.0,75,29.88,10.0,NNW,4.6,-,N/A,,Clear,330,2012-10-19 03:56:00
11:56 PM,55.0,46.9,74,29.88,10.0,NW,3.5,-,N/A,,Clear,320,2012-10-19 04:56:00